Weather History for KPEX - November, 2012

Change the Weather History Date:

Friday, November 9, 2012

  Actual Average (KLJF) Record (KLJF)
Temperature  
Mean Temperature 39 °F -  
Max Temperature 45 °F 42 °F 69 °F (1999)
Min Temperature 33 °F 26 °F 9 °F (1973)
Degree Days  
Heating Degree Days 26    
Moisture  
Dew Point 36 °F    
Average Humidity 86    
Maximum Humidity 96    
Minimum Humidity 75    
Precipitation  
Precipitation 0.00 in - - ()
Sea Level Pressure  
Sea Level Pressure 29.99 in    
Wind  
Wind Speed 10 mph (NE)    
Max Wind Speed 20 mph    
Max Gust Speed 26 mph    
Visibility 9 miles    
Events      
Averages and records for this station are not official NWS values.
T = Trace of Precipitation, MM = Missing Value Source: NWS Daily Summary

Daily Weather History Graph

Daily Weather History Graph

Search for Another Location

Airport or City:

Trip Planner

Search our weather history database for the weather conditions in past years. The results will help you decide how hot, cold, wet, or windy it might be!

Date:

Astronomy

Nov. 09, 2012 Rise Set
Actual Time 7:10 AM CST 4:55 PM CST
Civil Twilight 6:38 AM CST 5:26 PM CST
Nautical Twilight 6:03 AM CST 6:01 PM CST
Astronomical Twilight 5:28 AM CST 6:36 PM CST
Moon 1:56 AM CST (11/9) 2:20 PM CST (11/9)
Length of Visible Light 10h 48m
Length of Day
9h 44m
Waning Crescent, 23% of the Moon is Illuminated
Nov 9
Waning Crescent
Nov 13
New
Nov 20
First Quarter
Nov 28
Full
Dec 6
Last Quarter

Hourly Weather History & Observations

Time (CST) Temp. Windchill Dew Point Humidity Pressure Visibility Wind Dir Wind Speed Gust Speed Precip Events Conditions
12:13 AM 33.8 °F 29.6 °F 32.4 °F 94% 30.04 in 5.0 mi NNE 4.6 mph - N/A   Clear
12:33 AM 33.3 °F 27.9 °F 32.0 °F 95% 30.04 in 5.0 mi NNE 5.8 mph - N/A   Clear
12:53 AM 33.3 °F 28.9 °F 32.0 °F 95% 30.04 in 5.0 mi NNE 4.6 mph - N/A   Clear
1:14 AM 33.3 °F 27.1 °F 32.0 °F 95% 30.03 in 5.0 mi NNE 6.9 mph - N/A   Clear
1:33 AM 33.3 °F 27.1 °F 32.2 °F 96% 30.03 in 5.0 mi NNE 6.9 mph - N/A   Clear
1:53 AM 33.3 °F 27.9 °F 32.0 °F 95% 30.03 in 5.0 mi NNE 5.8 mph - N/A   Clear
2:14 AM 33.8 °F 27.7 °F 32.4 °F 94% 30.03 in 5.0 mi NNE 6.9 mph - N/A   Clear
2:33 AM 34.2 °F 27.5 °F 32.9 °F 95% 30.02 in 7.0 mi NNE 8.1 mph - N/A   Clear
2:53 AM 34.0 °F 28.0 °F 32.7 °F 95% 30.03 in 7.0 mi NNE 6.9 mph - N/A   Clear
3:13 AM 34.0 °F 27.2 °F 32.9 °F 96% 30.04 in 7.0 mi NNE 8.1 mph - N/A   Clear
3:33 AM 34.2 °F 27.5 °F 32.9 °F 95% 30.04 in 7.0 mi NNE 8.1 mph - N/A   Clear
3:53 AM 34.2 °F 28.2 °F 32.9 °F 95% 30.04 in 7.0 mi NNE 6.9 mph - N/A   Clear
4:13 AM 34.3 °F 27.7 °F 33.1 °F 95% 30.03 in 7.0 mi NNE 8.1 mph - N/A   Clear
4:33 AM 34.7 °F 28.1 °F 33.4 °F 95% 30.04 in 7.0 mi NNE 8.1 mph - N/A   Clear
4:53 AM 34.7 °F 28.8 °F 33.4 °F 95% 30.04 in 7.0 mi NNE 6.9 mph - N/A   Clear
5:13 AM 35.1 °F 28.6 °F 33.8 °F 95% 30.04 in 7.0 mi NNE 8.1 mph - N/A   Clear
5:53 AM 36.1 °F 29.3 °F 34.7 °F 94% 30.04 in 10.0 mi NNE 9.2 mph - N/A   Mostly Cloudy
6:13 AM 36.1 °F 29.9 °F 34.7 °F 94% 30.04 in 10.0 mi NE 8.1 mph - N/A   Overcast
6:33 AM 36.1 °F 29.9 °F 34.7 °F 94% 30.04 in 10.0 mi NE 8.1 mph - N/A   Overcast
6:53 AM 36.5 °F 29.7 °F 34.7 °F 93% 30.03 in 10.0 mi NE 9.2 mph - N/A   Overcast
7:13 AM 36.7 °F 29.9 °F 34.9 °F 93% 30.04 in 10.0 mi NE 9.2 mph - N/A   Overcast
7:33 AM 37.2 °F 29.6 °F 35.1 °F 92% 30.04 in 10.0 mi ENE 11.5 mph 16.1 mph N/A   Mostly Cloudy
7:53 AM 37.8 °F 30.2 °F 35.6 °F 92% 30.04 in 10.0 mi ENE 11.5 mph 16.1 mph N/A   Mostly Cloudy
8:13 AM 38.1 °F 30.7 °F 35.6 °F 91% 30.04 in 10.0 mi ENE 11.5 mph 18.4 mph N/A   Mostly Cloudy
8:33 AM 38.5 °F 31.6 °F 36.1 °F 91% 30.05 in 10.0 mi NE 10.4 mph 16.1 mph N/A   Mostly Cloudy
8:53 AM 39.2 °F 31.2 °F 36.5 °F 90% 30.04 in 10.0 mi ENE 13.8 mph 19.6 mph N/A   Overcast
9:13 AM 40.1 °F 32.7 °F 37.0 °F 89% 30.04 in 10.0 mi ENE 12.7 mph 18.4 mph N/A   Overcast
9:33 AM 41.0 °F 34.3 °F 37.4 °F 87% 30.04 in 10.0 mi ENE 11.5 mph 18.4 mph N/A   Overcast
9:54 AM 41.5 °F 33.2 °F 37.4 °F 85% 30.04 in 10.0 mi ENE 17.3 mph - N/A   Overcast
10:13 AM 42.1 °F 36.1 °F 37.6 °F 84% 30.03 in 10.0 mi ENE 10.4 mph 19.6 mph N/A   Overcast
10:33 AM 42.3 °F 35.5 °F 37.4 °F 83% 30.02 in 10.0 mi ENE 12.7 mph 21.9 mph N/A   Overcast
10:54 AM 42.6 °F 35.2 °F 37.4 °F 82% 30.02 in 10.0 mi ENE 15.0 mph 21.9 mph N/A   Overcast
11:13 AM 43.2 °F 37.0 °F 37.6 °F 81% 30.01 in 10.0 mi ENE 11.5 mph - N/A   Overcast
11:33 AM 43.7 °F 36.6 °F 37.8 °F 80% 30.00 in 10.0 mi ENE 15.0 mph 21.9 mph N/A   Overcast
11:53 AM 44.1 °F 36.8 °F 37.8 °F 78% 30.00 in 10.0 mi ENE 16.1 mph 21.9 mph N/A   Overcast
12:13 PM 44.4 °F 38.2 °F 37.6 °F 77% 29.99 in 10.0 mi ENE 12.7 mph 17.3 mph N/A   Overcast
12:33 PM 44.8 °F 39.4 °F 37.8 °F 76% 29.98 in 10.0 mi ENE 10.4 mph 17.3 mph N/A   Mostly Cloudy
12:53 PM 45.0 °F 39.3 °F 37.9 °F 76% 29.98 in 10.0 mi ENE 11.5 mph 17.3 mph N/A   Overcast
1:13 PM 45.0 °F 38.5 °F 37.8 °F 76% 29.96 in 10.0 mi ENE 13.8 mph 17.3 mph N/A   Mostly Cloudy
1:33 PM 45.1 °F 38.1 °F 37.8 °F 75% 29.95 in 10.0 mi ENE 16.1 mph 20.7 mph N/A   Clear
1:53 PM 44.8 °F 38.3 °F 37.6 °F 76% 29.95 in 10.0 mi ENE 13.8 mph 20.7 mph N/A   Clear
2:13 PM 44.8 °F 37.7 °F 37.6 °F 76% 29.95 in 10.0 mi ENE 16.1 mph 21.9 mph N/A   Scattered Clouds
2:33 PM 44.6 °F 37.8 °F 37.4 °F 76% 29.94 in 10.0 mi NE 15.0 mph 19.6 mph N/A   Mostly Cloudy
2:53 PM 44.1 °F 36.5 °F 37.4 °F 77% 29.94 in 10.0 mi ENE 17.3 mph 24.2 mph N/A   Scattered Clouds
3:13 PM 43.7 °F 36.3 °F 37.4 °F 78% 29.94 in 10.0 mi NE 16.1 mph 21.9 mph N/A   Mostly Cloudy
3:33 PM 43.7 °F 36.0 °F 37.4 °F 78% 29.95 in 10.0 mi ENE 17.3 mph 23.0 mph N/A   Mostly Cloudy
3:53 PM 43.0 °F 35.1 °F 37.0 °F 80% 29.94 in 10.0 mi ENE 17.3 mph 21.9 mph N/A   Scattered Clouds
4:13 PM 42.8 °F 35.4 °F 36.9 °F 80% 29.94 in 10.0 mi ENE 15.0 mph - N/A   Mostly Cloudy
4:33 PM 42.3 °F 35.9 °F 36.7 °F 81% 29.94 in 10.0 mi ENE 11.5 mph 17.3 mph N/A   Mostly Cloudy
4:53 PM 41.9 °F 34.6 °F 36.5 °F 81% 29.94 in 10.0 mi ENE 13.8 mph 20.7 mph N/A   Scattered Clouds
5:13 PM 41.5 °F 33.5 °F 36.5 °F 82% 29.94 in 10.0 mi ENE 16.1 mph 19.6 mph N/A   Scattered Clouds
5:33 PM 41.4 °F 34.3 °F 36.5 °F 83% 29.94 in 10.0 mi ENE 12.7 mph - N/A   Scattered Clouds
5:54 PM 41.2 °F 33.7 °F 36.1 °F 82% 29.94 in 10.0 mi ENE 13.8 mph 20.7 mph N/A   Mostly Cloudy
6:13 PM 41.0 °F 33.5 °F 36.1 °F 83% 29.94 in 10.0 mi ENE 13.8 mph 21.9 mph N/A   Mostly Cloudy
6:33 PM 40.8 °F 33.3 °F 36.0 °F 83% 29.94 in 10.0 mi ENE 13.8 mph 20.7 mph N/A   Mostly Cloudy
6:54 PM 41.0 °F 33.9 °F 36.1 °F 83% 29.95 in 10.0 mi ENE 12.7 mph 19.6 mph N/A   Overcast
7:13 PM 40.6 °F 32.7 °F 36.0 °F 83% 29.96 in 10.0 mi ENE 15.0 mph 19.6 mph N/A   Overcast
7:34 PM 40.6 °F 32.3 °F 36.0 °F 83% 29.94 in 10.0 mi ENE 16.1 mph 23.0 mph N/A   Overcast
7:53 PM 40.6 °F 33.4 °F 36.0 °F 83% 29.95 in 10.0 mi ENE 12.7 mph 21.9 mph N/A   Overcast
8:13 PM 40.6 °F 31.4 °F 36.0 °F 83% 29.94 in 10.0 mi East 19.6 mph 26.5 mph N/A   Overcast
8:33 PM 40.5 °F 31.2 °F 36.0 °F 84% 29.95 in 10.0 mi East 19.6 mph 25.3 mph N/A   Overcast
8:54 PM 40.5 °F 32.1 °F 36.0 °F 84% 29.94 in 10.0 mi ENE 16.1 mph 23.0 mph N/A   Overcast
9:13 PM 40.5 °F 32.5 °F 36.0 °F 84% 29.95 in 10.0 mi East 15.0 mph 23.0 mph N/A   Overcast
9:33 PM 40.6 °F 32.3 °F 36.1 °F 84% 29.95 in 10.0 mi East 16.1 mph 21.9 mph N/A   Overcast
9:54 PM 40.5 °F 32.8 °F 36.0 °F 84% 29.93 in 10.0 mi ENE 13.8 mph 20.7 mph N/A   Overcast
10:13 PM 40.5 °F 33.2 °F 36.0 °F 84% 29.93 in 10.0 mi ENE 12.7 mph 18.4 mph N/A   Overcast
10:33 PM 40.5 °F 32.5 °F 36.0 °F 84% 29.92 in 10.0 mi East 15.0 mph 25.3 mph N/A   Overcast
10:54 PM 40.6 °F 33.0 °F 36.1 °F 84% 29.91 in 10.0 mi East 13.8 mph 20.7 mph N/A   Overcast
11:13 PM 40.5 °F 32.8 °F 36.0 °F 84% 29.90 in 10.0 mi East 13.8 mph 20.7 mph N/A   Overcast
11:33 PM 40.8 °F 32.9 °F 36.0 °F 83% 29.89 in 10.0 mi East 15.0 mph 18.4 mph N/A   Overcast
11:54 PM 40.8 °F 32.9 °F 36.5 °F 85% 29.89 in 7.0 mi East 15.0 mph 23.0 mph N/A   Overcast